This is the latest recevied weather packets stored in our database for station/object N9JXN-13. If no packets are shown the sender has not sent any weather packets the latest 10 day(s).
| Time | Temp. | Humidity | Pressure | Rain* | Wind** | Luminosity | Snow |
|---|---|---|---|---|---|---|---|
| 1777596918 | 10° C | 86% | 1013.5 hPa | 0 mm | - | 0 W/m² | - |
| 1777596019 | 10.56° C | 84% | 1013.5 hPa | 0 mm | - | 0 W/m² | - |
| 1777595719 | 10.56° C | 83% | 1013.4 hPa | 0 mm | - | 0 W/m² | - |
| 1777595418 | 10.56° C | 82% | 1013.4 hPa | 0 mm | - | 5 W/m² | - |
| 1777594818 | 10.56° C | 81% | 1013.4 hPa | 0 mm | - | 12 W/m² | - |
| 1777591818 | 11.67° C | 74% | 1013.4 hPa | 0 mm | - | 69 W/m² | - |
| 1777589418 | 11.67° C | 78% | 1013.7 hPa | 0.25 mm | - | 46 W/m² | - |
| 1777588818 | 11.67° C | 79% | 1013.7 hPa | 0.25 mm | - | 58 W/m² | - |
| 1777587918 | 11.11° C | 79% | 1013.7 hPa | 0.25 mm | - | 56 W/m² | - |
| 1777587618 | 11.11° C | 77% | 1013.7 hPa | 0.25 mm | - | 83 W/m² | - |
| 1777585519 | 13.33° C | 61% | 1013.9 hPa | 0 mm | - | 32 W/m² | - |
| 1777580118 | 15° C | 50% | 1014.1 hPa | 0 mm | - | 186 W/m² | - |
| 1777578919 | 15° C | 49% | 1014.2 hPa | 0 mm | - | 176 W/m² | - |
| 1777572919 | 17.22° C | 38% | 1014.6 hPa | 0 mm | - | 325 W/m² | - |
| 1777571418 | 17.78° C | 37% | 1014.9 hPa | 0 mm | - | 972 W/m² | - |
| 1777566918 | 16.11° C | 40% | 1016.1 hPa | 0 mm | - | 895 W/m² | - |
| 1777566618 | 16.11° C | 41% | 1016 hPa | 0 mm | - | 879 W/m² | - |
| 1777566318 | 16.11° C | 42% | 1016.1 hPa | 0 mm | - | 879 W/m² | - |
| 1777566018 | 16.11° C | 40% | 1016 hPa | 0 mm | - | 870 W/m² | - |
| 1777563318 | 14.44° C | 44% | 1016.6 hPa | 0 mm | - | 784 W/m² | - |
| 1777562418 | 13.33° C | 48% | 1016.5 hPa | 0 mm | - | 751 W/m² | - |
| 1777559417 | 12.22° C | 60% | 1016.9 hPa | 0 mm | - | 186 W/m² | - |
| 1777558818 | 11.67° C | 67% | 1017 hPa | 0 mm | - | 209 W/m² | - |
| 1777555218 | 7.78° C | 89% | 1016.9 hPa | 0 mm | - | 309 W/m² | - |
| 1777554017 | 6.67° C | 94% | 1016.9 hPa | 0 mm | - | 58 W/m² | - |
* Rain latest hour (hover to see other rain measurements)
** Current wind speed in m/s (hover to see current wind gust speed)